User: anonymous   Login
Location: Hokitika
(42.7170°S, 170.9670°E)
Time: 10:56:00
(UTC+13:00)
Language:

ERBS - Orbit

View from above orbital plane
View from above orbital plane
View from above satellite
View from above satellite

Ground track
Ground track

The orbit data is extracted from the following two-line orbital elements,

1 15354U 84108B   19287.87116714 +.00002455 +00000-0 +53654-4 0  9994
2 15354 057.0067 066.0625 0005026 319.6266 040.4417 15.48300096929350
Epoch (UTC): 14 October 2019 20:54:28
Eccentricity: 0.0005026
inclination: 57.0067°
perigee height: 418 km
apogee height: 425 km
right ascension of ascending node: 66.0625°
argument of perigee: 319.6266°
revolutions per day: 15.48300096
mean anomaly at epoch: 40.4417°
orbit number at epoch: 92935

The dashed part of the orbit path shows where the satellite is in the earth's shadow,  

DLR